AEE324 LGAV-LGIR

Flight info

Callsign AEE324
Flight time 0h 35m
Altitude 27000
Route KEA UL607 GIVIS T514 XAVIS
Aircraft A320/M-SDE3FGHIRWY/LB1

Departure

Time 2026-05-04 20:32
Airport Athens Eleftherios Venizelos International Airport (LGAV)

Arrival

Time 2026-05-04 21:07
Airport Heraklion International Nikos Kazantzakis Airport (LGIR)
Time Latitude Longitude Altitude Speed Heading
2026-05-04 20:14 37.94137 23.95335 301 ft 0 kts 218°
2026-05-04 20:24 37.94157 23.95354 301 ft 4 kts 214°
2026-05-04 20:25 37.94180 23.95373 302 ft 4 kts 208°
2026-05-04 20:25 37.94205 23.95387 301 ft 4 kts 194°
2026-05-04 20:25 37.94229 23.95389 301 ft 4 kts 148°
2026-05-04 20:25 37.94237 23.95380 301 ft 1 kts 127°
2026-05-04 20:26 37.94238 23.95379 301 ft 0 kts 127°
2026-05-04 20:27 37.94215 23.95417 300 ft 14 kts 127°
2026-05-04 20:28 37.94131 23.95557 299 ft 24 kts 127°
2026-05-04 20:28 37.94025 23.95641 296 ft 13 kts 214°
2026-05-04 20:28 37.93948 23.95565 298 ft 17 kts 215°
2026-05-04 20:28 37.93835 23.95456 297 ft 24 kts 217°
2026-05-04 20:29 37.93682 23.95311 300 ft 30 kts 217°
2026-05-04 20:29 37.93496 23.95135 301 ft 36 kts 217°
2026-05-04 20:29 37.93283 23.94935 300 ft 39 kts 217°
2026-05-04 20:29 37.93066 23.94725 302 ft 39 kts 216°
2026-05-04 20:30 37.92845 23.94516 302 ft 40 kts 217°
2026-05-04 20:30 37.92636 23.94318 304 ft 24 kts 217°
2026-05-04 20:30 37.92531 23.94331 305 ft 17 kts 125°
2026-05-04 20:30 37.92488 23.94450 308 ft 13 kts 57°
2026-05-04 20:31 37.92572 23.94537 306 ft 18 kts 38°
2026-05-04 20:31 37.92758 23.94710 302 ft 57 kts 37°
2026-05-04 20:31 37.93256 23.95185 294 ft 119 kts 37°
2026-05-04 20:31 37.94045 23.95939 294 ft 163 kts 36°
2026-05-04 20:32 37.94950 23.96787 847 ft 159 kts 35°
2026-05-04 20:32 37.95840 23.97622 1425 ft 159 kts 34°
2026-05-04 20:32 37.96729 23.98466 1980 ft 160 kts 34°
2026-05-04 20:32 37.97624 23.99319 2461 ft 164 kts 35°
2026-05-04 20:33 37.98602 24.00263 2735 ft 188 kts 35°
2026-05-04 20:33 37.99706 24.01334 3027 ft 212 kts 36°
2026-05-04 20:33 38.00931 24.02521 3423 ft 235 kts 36°
2026-05-04 20:33 38.02243 24.03794 4278 ft 239 kts 36°
2026-05-04 20:34 38.03578 24.05090 5300 ft 238 kts 36°
2026-05-04 20:34 38.04870 24.06342 6304 ft 237 kts 36°
2026-05-04 20:34 38.06175 24.07604 7291 ft 236 kts 35°
2026-05-04 20:34 38.07484 24.08876 8171 ft 239 kts 37°
2026-05-04 20:35 38.08570 24.10512 8973 ft 250 kts 57°
2026-05-04 20:35 38.09107 24.12669 9631 ft 271 kts 80°
2026-05-04 20:35 38.08855 24.15129 10184 ft 294 kts 104°
2026-05-04 20:35 38.07900 24.17578 10431 ft 325 kts 122°
2026-05-04 20:36 38.06271 24.19733 10630 ft 354 kts 141°
2026-05-04 20:36 38.04022 24.21246 10776 ft 381 kts 161°
2026-05-04 20:36 38.01343 24.21892 10997 ft 400 kts 172°
2026-05-04 20:36 37.98557 24.22366 11549 ft 406 kts 172°
2026-05-04 20:37 37.95750 24.22845 12193 ft 410 kts 172°
2026-05-04 20:37 37.92909 24.23333 12860 ft 413 kts 172°
2026-05-04 20:37 37.90047 24.23832 13530 ft 417 kts 172°
2026-05-04 20:37 37.87165 24.24344 14177 ft 419 kts 171°
2026-05-04 20:38 37.84271 24.24863 14804 ft 422 kts 172°
2026-05-04 20:38 37.81359 24.25381 15397 ft 424 kts 172°
2026-05-04 20:38 37.78422 24.25895 15995 ft 427 kts 172°
2026-05-04 20:38 37.75463 24.26408 16582 ft 430 kts 172°
2026-05-04 20:39 37.72518 24.26917 17154 ft 433 kts 172°
2026-05-04 20:39 37.69522 24.27438 17725 ft 437 kts 172°
2026-05-04 20:39 37.66497 24.27968 18289 ft 440 kts 172°
2026-05-04 20:39 37.63456 24.28503 18787 ft 443 kts 172°
2026-05-04 20:40 37.60396 24.29042 19286 ft 445 kts 172°
2026-05-04 20:40 37.57350 24.29801 19773 ft 448 kts 163°
2026-05-04 20:40 37.54421 24.31134 20236 ft 449 kts 154°
2026-05-04 20:40 37.51669 24.33024 20708 ft 451 kts 147°
2026-05-04 20:41 37.49007 24.35125 21126 ft 453 kts 147°
2026-05-04 20:41 37.46329 24.37234 21544 ft 455 kts 147°
2026-05-04 20:41 37.43639 24.39348 21948 ft 458 kts 147°
2026-05-04 20:41 37.40925 24.41479 22266 ft 462 kts 147°
2026-05-04 20:42 37.38187 24.43628 22615 ft 465 kts 147°
2026-05-04 20:42 37.35439 24.45781 22968 ft 467 kts 147°
2026-05-04 20:42 37.32675 24.47947 23327 ft 469 kts 147°
2026-05-04 20:42 37.29890 24.50125 23678 ft 471 kts 147°
2026-05-04 20:43 37.27104 24.52303 23981 ft 473 kts 147°
2026-05-04 20:43 37.24300 24.54492 24280 ft 475 kts 147°
2026-05-04 20:43 37.21488 24.56682 24579 ft 477 kts 147°
2026-05-04 20:43 37.18663 24.58879 24874 ft 478 kts 147°
2026-05-04 20:44 37.15831 24.61081 25159 ft 480 kts 147°
2026-05-04 20:44 37.12979 24.63298 25434 ft 482 kts 147°
2026-05-04 20:44 37.10124 24.65518 25710 ft 484 kts 147°
2026-05-04 20:44 37.07264 24.67741 26103 ft 483 kts 147°
2026-05-04 20:45 37.04411 24.69953 26518 ft 481 kts 147°
2026-05-04 20:45 37.01566 24.72158 26932 ft 480 kts 147°
2026-05-04 20:45 36.98729 24.74355 27097 ft 480 kts 147°
2026-05-04 20:45 36.95874 24.76563 27136 ft 484 kts 147°
2026-05-04 20:46 36.93003 24.78782 27136 ft 484 kts 147°
2026-05-04 20:46 36.90138 24.80996 27137 ft 485 kts 147°
2026-05-04 20:46 36.87270 24.83214 27134 ft 485 kts 148°
2026-05-04 20:46 36.84426 24.85415 27136 ft 488 kts 148°
2026-05-04 20:47 36.81500 24.87681 27135 ft 489 kts 148°
2026-05-04 20:47 36.78644 24.89893 27137 ft 490 kts 148°
2026-05-04 20:47 36.75705 24.92165 27135 ft 490 kts 148°
2026-05-04 20:47 36.72808 24.94398 27134 ft 490 kts 148°
2026-05-04 20:48 36.69945 24.96601 27136 ft 490 kts 148°
2026-05-04 20:48 36.67045 24.98826 27131 ft 490 kts 148°
2026-05-04 20:48 36.64145 25.01049 27138 ft 490 kts 148°
2026-05-04 20:48 36.61242 25.03276 27144 ft 489 kts 147°
2026-05-04 20:49 36.58344 25.05497 27133 ft 490 kts 148°
2026-05-04 20:49 36.55434 25.07720 27113 ft 490 kts 148°
2026-05-04 20:49 36.52525 25.09938 27115 ft 491 kts 148°
2026-05-04 20:49 36.49615 25.12157 27119 ft 491 kts 148°
2026-05-04 20:50 36.46703 25.14375 27118 ft 491 kts 148°
2026-05-04 20:50 36.43792 25.16592 27115 ft 491 kts 148°
2026-05-04 20:50 36.41821 25.18095 27118 ft 491 kts 148°
2026-05-04 20:50 36.38908 25.20319 27115 ft 491 kts 148°
2026-05-04 20:51 36.36029 25.22515 27115 ft 491 kts 148°
2026-05-04 20:51 36.33114 25.24733 27117 ft 492 kts 148°
2026-05-04 20:51 36.30195 25.26951 27105 ft 493 kts 148°
2026-05-04 20:51 36.27254 25.29183 26866 ft 495 kts 148°
2026-05-04 20:52 36.24312 25.31413 26461 ft 494 kts 148°
2026-05-04 20:52 36.21376 25.33636 25241 ft 497 kts 148°
2026-05-04 20:52 36.18434 25.35856 24007 ft 490 kts 148°
2026-05-04 20:52 36.15554 25.38025 22648 ft 478 kts 148°
2026-05-04 20:53 36.12687 25.40019 21616 ft 471 kts 154°
2026-05-04 20:53 36.09661 25.41544 20751 ft 468 kts 161°
2026-05-04 20:53 36.06566 25.42791 19870 ft 465 kts 162°
2026-05-04 20:53 36.03502 25.44025 19009 ft 462 kts 162°
2026-05-04 20:54 36.00451 25.45256 18108 ft 459 kts 162°
2026-05-04 20:54 35.97429 25.46477 17237 ft 454 kts 162°
2026-05-04 20:54 35.94444 25.47677 16397 ft 449 kts 162°
2026-05-04 20:54 35.91487 25.48864 15574 ft 445 kts 162°
2026-05-04 20:55 35.88550 25.50041 14769 ft 441 kts 162°
2026-05-04 20:55 35.85645 25.51204 13998 ft 438 kts 162°
2026-05-04 20:55 35.82790 25.52349 13197 ft 435 kts 162°
2026-05-04 20:55 35.79894 25.53511 12481 ft 430 kts 162°
2026-05-04 20:56 35.77104 25.54630 11785 ft 425 kts 162°
2026-05-04 20:56 35.74281 25.55759 11369 ft 412 kts 162°
2026-05-04 20:56 35.71668 25.56814 11122 ft 379 kts 160°
2026-05-04 20:56 35.69392 25.58089 10967 ft 350 kts 150°
2026-05-04 20:57 35.67433 25.59680 10776 ft 327 kts 141°
2026-05-04 20:57 35.65670 25.61351 10359 ft 316 kts 148°
2026-05-04 20:57 35.63679 25.62347 10162 ft 308 kts 169°
2026-05-04 20:57 35.61531 25.62490 9983 ft 312 kts 189°
2026-05-04 20:58 35.59464 25.61681 9386 ft 310 kts 213°
2026-05-04 20:58 35.57649 25.60343 9062 ft 301 kts 215°
2026-05-04 20:58 35.55848 25.59031 8395 ft 300 kts 214°
2026-05-04 20:58 35.54057 25.57744 7773 ft 297 kts 214°
2026-05-04 20:59 35.52276 25.56476 7171 ft 294 kts 214°
2026-05-04 20:59 35.50512 25.55218 6574 ft 292 kts 214°
2026-05-04 20:59 35.48771 25.53974 5973 ft 288 kts 214°
2026-05-04 20:59 35.47052 25.52746 5430 ft 283 kts 214°
2026-05-04 21:00 35.45393 25.51561 5192 ft 266 kts 214°
2026-05-04 21:00 35.43852 25.50461 5070 ft 246 kts 214°
2026-05-04 21:00 35.42429 25.49446 4970 ft 230 kts 214°
2026-05-04 21:00 35.41069 25.48470 4873 ft 223 kts 215°
2026-05-04 21:01 35.39761 25.47532 4773 ft 212 kts 215°
2026-05-04 21:01 35.38507 25.46636 4687 ft 207 kts 216°
2026-05-04 21:01 35.37274 25.45754 4648 ft 201 kts 216°
2026-05-04 21:01 35.36260 25.44699 4520 ft 184 kts 237°
2026-05-04 21:02 35.35645 25.43384 4270 ft 179 kts 250°
2026-05-04 21:02 35.35118 25.41993 4021 ft 177 kts 250°
2026-05-04 21:02 35.34597 25.40641 3788 ft 174 kts 250°
2026-05-04 21:02 35.34088 25.39323 3566 ft 172 kts 250°
2026-05-04 21:03 35.33580 25.38002 3339 ft 171 kts 249°
2026-05-04 21:03 35.33070 25.36666 3105 ft 174 kts 251°
2026-05-04 21:03 35.32806 25.35248 2874 ft 170 kts 271°
2026-05-04 21:03 35.32884 25.33816 2639 ft 167 kts 278°
2026-05-04 21:04 35.32982 25.32428 2439 ft 159 kts 277°
2026-05-04 21:04 35.33070 25.31133 2254 ft 145 kts 276°
2026-05-04 21:04 35.33153 25.29927 2055 ft 138 kts 276°
2026-05-04 21:04 35.33232 25.28778 1859 ft 133 kts 276°
2026-05-04 21:05 35.33310 25.27658 1661 ft 132 kts 277°
2026-05-04 21:05 35.33388 25.26534 1406 ft 134 kts 275°
2026-05-04 21:05 35.33463 25.25412 1227 ft 131 kts 275°
2026-05-04 21:05 35.33540 25.24292 989 ft 134 kts 274°
2026-05-04 21:06 35.33626 25.23151 807 ft 135 kts 274°
2026-05-04 21:06 35.33713 25.22005 660 ft 136 kts 272°
2026-05-04 21:06 35.33790 25.20869 464 ft 134 kts 272°
2026-05-04 21:06 35.33872 25.19733 274 ft 135 kts 272°
2026-05-04 21:07 35.33937 25.18601 116 ft 126 kts 273°
2026-05-04 21:07 35.33996 25.17714 95 ft 69 kts 275°
2026-05-04 21:07 35.34024 25.17299 84 ft 47 kts 274°
2026-05-04 21:07 35.33965 25.17056 74 ft 8 kts 198°
2026-05-04 21:08 35.33937 25.17112 76 ft 9 kts 94°
2026-05-04 21:08 35.33934 25.17182 80 ft 7 kts 92°
2026-05-04 21:08 35.33907 25.17200 80 ft 6 kts 191°
2026-05-04 21:08 35.33879 25.17165 80 ft 7 kts 300°
2026-05-04 21:09 35.33907 25.17159 81 ft 0 kts